sat.trackr.live / text

‹ back to catalog

STARLINK-11172 [DTC]

NORAD 60193 · 2024-124L

PAYLOAD ACTIVE UNKNOWN

§ Identity

Operator
Country
US
Launch date
2024-07-03
Launch site
AFETR
Launch vehicle
Mass (kg)
RCS (m²)

Purposes: comms

External: N2YO · Heavens-Above · Gunter

§ Orbital elements

Epoch: 2026-09-21T17:34:41.291904Z

Period
91.74 min
Inclination
53.1597°
Eccentricity
0.0001414
Mean motion
15.69706168 rev/d
Perigee alt
358.8 km
Apogee alt
360.7 km
Semi-major
6,737.9 km
B*
-7.3809e-7
RAAN
274.9180°
Arg perigee
76.5514°
Mean anomaly
283.5662°
Rev number
12,732

§ Raw data

STARLINK-11172 [DTC]1 60193U 24124L   26264.73242236 -.00000678  00000+0 -73809-6 0  99962 60193  53.1597 274.9180 0001414  76.5514 283.5662 15.69706168127326

JSON: /api/v1/satellites/60193 · /tle

For live sub-satellite position, see the globe view (requires WebGL).

§ Visibility from observer

Set your observer location to see the next 7 days of passes ≥ 10°. The values pass through the URL so the page stays shareable.

No JS? Fill the form by hand. The geolocation button needs JavaScript.